This demonstration page uses our WeatherBlox Daily Observations layout. Learn more.

Left ArrowRight Arrow

Hourly Observations for January 7, 2017

Temp ( °F °C ) Dew Point ( °F °C ) Humidity (%) Winds ( mph kmh ) Pressure ( in mb ) Visibility ( mi km ) Precip ( " mm )
12:52 am 00:52 Clear 3 -16.1 -2 -18.9 79 79 Calm 30.53 1034 10 16 0.00 0.00
1:52 am 01:52 Clear 2 -16.7 -3 -19.4 80 80 Calm 30.55 1034 10 16 0.00 0.00
2:52 am 02:52 Clear 2 -16.7 -4 -20 76 76 WSW 3 6 30.57 1035 10 16 0.00 0.00
3:52 am 03:52 Clear 2 -16.7 -3 -19.4 80 80 Calm 30.59 1036 10 16 0.00 0.00
4:52 am 04:52 Clear 2 -16.7 -3 -19.4 80 80 WSW 3 6 30.60 1036 10 16 0.00 0.00
5:52 am 05:52 Clear 3 -16.1 -3 -19.4 76 76 SW 3 6 30.62 1037 10 16 0.00 0.00
6:52 am 06:52 Clear 4 -15.6 -3 -19.4 73 73 Calm 30.63 1037 10 16 0.00 0.00
7:52 am 07:52 Sunny 3 -16.1 -3 -19.4 76 76 S 5 7 30.64 1038 10 16 0.00 0.00
8:52 am 08:52 Sunny 12 -11.1 4 -15.6 70 70 SSW 5 7 30.64 1038 10 16 0.00 0.00
9:52 am 09:52 Sunny 17 -8.3 5 -15 59 59 SW 6 9 30.66 1038 10 16 0.00 0.00
10:52 am 10:52 Sunny 22 -5.6 7 -13.9 52 52 WSW 7 11 30.67 1039 10 16 0.00 0.00
11:52 am 11:52 Sunny 26 -3.3 9 -12.8 48 48 WSW 10 17 30.66 1038 10 16 0.00 0.00
12:52 pm 12:52 Sunny 29 -1.7 10 -12.2 45 45 W 8 13 30.65 1038 10 16 0.00 0.00
1:52 pm 13:52 Sunny 31 -0.6 11 -11.7 43 43 W 9 15 30.63 1037 10 16 0.00 0.00
2:52 pm 14:52 Sunny 32 0 11 -11.7 41 41 WSW 10 17 30.63 1037 10 16 0.00 0.00
3:52 pm 15:52 Sunny 32 0 10 -12.2 40 40 W 12 19 30.65 1038 10 16 0.00 0.00
4:52 pm 16:52 Sunny 30 -1.1 11 -11.7 45 45 NW 6 9 30.66 1038 10 16 0.00 0.00
5:52 pm 17:52 Clear 27 -2.8 11 -11.7 51 51 WNW 3 6 30.68 1039 10 16 0.00 0.00
6:52 pm 18:52 Clear 20 -6.7 10 -12.2 65 65 Calm 30.70 1040 10 16 0.00 0.00
7:52 pm 19:52 Clear 17 -8.3 9 -12.8 70 70 Calm 30.71 1040 10 16 0.00 0.00
8:52 pm 20:52 Clear 23 -5 9 -12.8 55 55 WNW 6 9 30.70 1040 10 16 0.00 0.00
9:52 pm 21:52 Clear 20 -6.7 10 -12.2 65 65 NW 5 7 30.71 1040 10 16 0.00 0.00
10:52 pm 22:52 Clear 17 -8.3 9 -12.8 70 70 NNW 6 9 30.71 1040 10 16 0.00 0.00
11:52 pm 23:52 Clear 17 -8.3 9 -12.8 70 70 N 5 7 30.71 1040 10 16 0.00 0.00

Powered by AerisWeather